• In Deutschland
  • Länderverzeichnis
  • Für 7 Tage
  • Wassertemperatur
  • Satellitenkarten
  • Wetterkarte
  • Widgets
  • user-avatar
    Anmelden

    Stündliche Wetter Mainz

    Heute, 25 Februar, Sonntag

    Zeit Temperatur Niederschläge Wind Luftdruck Luftfeuchtigkeit
    00:00 -6°C° 0 mm 6 m/S 759 mmHg 43%
    01:00 -5°C° 0 mm 4 m/S 760 mmHg 45%
    02:00 -5°C° 0 mm 4 m/S 760 mmHg 45%
    03:00 -6°C° 0 mm 5 m/S 760 mmHg 44%
    04:00 -7°C° 0 mm 5 m/S 760 mmHg 43%
    05:00 -7°C° 0 mm 5 m/S 760 mmHg 43%
    06:00 -7°C° 0 mm 5 m/S 760 mmHg 42%
    07:00 -10°C° 0 mm 5 m/S 761 mmHg 42%
    08:00 -8°C° 0 mm 5 m/S 761 mmHg 39%
    09:00 -7°C° 0 mm 5 m/S 761 mmHg 35%
    10:00 -7°C° 0 mm 5 m/S 761 mmHg 32%
    11:00 -6°C° 0 mm 5 m/S 761 mmHg 28%
    12:00 -5°C° 0 mm 5 m/S 761 mmHg 25%
    13:00 -4°C° 0 mm 5 m/S 760 mmHg 21%
    14:00 -4°C° 0 mm 5 m/S 760 mmHg 22%
    15:00 -4°C° 0 mm 5 m/S 760 mmHg 22%
    16:00 -4°C° 0 mm 5 m/S 759 mmHg 22%
    17:00 -5°C° 0 mm 5 m/S 759 mmHg 25%
    18:00 -5°C° 0 mm 5 m/S 759 mmHg 28%
    19:00 -5°C° 0 mm 4 m/S 759 mmHg 31%
    20:00 -5°C° 0 mm 4 m/S 760 mmHg 32%
    21:00 -7°C° 0 mm 5 m/S 760 mmHg 33%
    22:00 -7°C° 0 mm 5 m/S 760 mmHg 34%
    23:00 -7°C° 0 mm 5 m/S 760 mmHg 35%

    Morgen, 26 Februar, Montag

    Zeit Temperatur Niederschläge Wind Luftdruck Luftfeuchtigkeit
    00:00 -7°C° 0 mm 4 m/S 760 mmHg 37%
    01:00 -8°C° 0 mm 4 m/S 760 mmHg 38%
    02:00 -8°C° 0 mm 4 m/S 760 mmHg 40%
    03:00 -8°C° 0 mm 4 m/S 760 mmHg 41%
    04:00 -9°C° 0 mm 4 m/S 760 mmHg 43%
    05:00 -9°C° 0 mm 4 m/S 760 mmHg 44%
    06:00 -9°C° 0 mm 4 m/S 760 mmHg 45%
    07:00 -9°C° 0 mm 4 m/S 760 mmHg 47%
    08:00 -10°C° 0 mm 5 m/S 760 mmHg 46%
    09:00 -8°C° 0 mm 5 m/S 760 mmHg 44%
    10:00 -8°C° 0 mm 5 m/S 760 mmHg 43%
    11:00 -7°C° 0 mm 5 m/S 760 mmHg 41%
    12:00 -6°C° 0 mm 5 m/S 760 mmHg 39%
    13:00 -6°C° 0 mm 5 m/S 759 mmHg 38%
    14:00 -6°C° 0 mm 5 m/S 759 mmHg 38%
    15:00 -6°C° 0 mm 5 m/S 759 mmHg 37%
    16:00 -5°C° 0 mm 5 m/S 758 mmHg 37%
    17:00 -6°C° 0 mm 5 m/S 758 mmHg 39%
    18:00 -7°C° 0 mm 5 m/S 758 mmHg 41%
    19:00 -7°C° 0 mm 4 m/S 758 mmHg 43%
    20:00 -7°C° 0 mm 4 m/S 758 mmHg 43%
    21:00 -8°C° 0 mm 4 m/S 758 mmHg 42%
    22:00 -7°C° 0 mm 3 m/S 758 mmHg 42%
    23:00 -7°C° 0 mm 3 m/S 758 mmHg 44%

    übermorgen, 27 Februar, Dienstag

    Zeit Temperatur Niederschläge Wind Luftdruck Luftfeuchtigkeit
    00:00 -7°C° 0 mm 3 m/S 757 mmHg 46%
    01:00 -8°C° 0 mm 3 m/S 757 mmHg 47%
    02:00 -8°C° 0 mm 3 m/S 757 mmHg 48%
    03:00 -8°C° 0 mm 3 m/S 757 mmHg 48%
    04:00 -8°C° 0 mm 3 m/S 756 mmHg 48%
    05:00 -9°C° 0 mm 3 m/S 756 mmHg 47%
    06:00 -9°C° 0 mm 3 m/S 756 mmHg 47%
    07:00 -9°C° 0 mm 3 m/S 756 mmHg 46%
    08:00 -10°C° 0 mm 4 m/S 756 mmHg 42%
    09:00 -9°C° 0 mm 4 m/S 756 mmHg 39%
    10:00 -8°C° 0 mm 5 m/S 756 mmHg 35%
    11:00 -8°C° 0 mm 5 m/S 756 mmHg 32%
    12:00 -7°C° 0 mm 5 m/S 755 mmHg 29%
    13:00 -6°C° 0 mm 5 m/S 755 mmHg 27%
    14:00 -6°C° 0 mm 5 m/S 755 mmHg 27%
    15:00 -5°C° 0 mm 4 m/S 754 mmHg 26%
    16:00 -5°C° 0 mm 4 m/S 754 mmHg 26%
    17:00 -5°C° 0 mm 4 m/S 754 mmHg 28%
    18:00 -6°C° 0 mm 3 m/S 754 mmHg 31%
    19:00 -7°C° 0 mm 3 m/S 754 mmHg 33%
    20:00 -7°C° 0 mm 3 m/S 755 mmHg 34%
    21:00 -7°C° 0 mm 3 m/S 755 mmHg 35%
    22:00 -7°C° 0 mm 3 m/S 755 mmHg 36%
    23:00 -8°C° 0 mm 3 m/S 755 mmHg 37%

    28 Februar, Mittwoch

    Zeit Temperatur Niederschläge Wind Luftdruck Luftfeuchtigkeit
    00:00 -8°C° 0 mm 3 m/S 755 mmHg 39%
    01:00 -8°C° 0 mm 3 m/S 755 mmHg 40%
    02:00 -8°C° 0 mm 3 m/S 755 mmHg 41%
    03:00 -9°C° 0 mm 3 m/S 755 mmHg 43%
    04:00 -9°C° 0 mm 3 m/S 755 mmHg 44%
    05:00 -9°C° 0 mm 3 m/S 755 mmHg 45%
    06:00 -9°C° 0 mm 3 m/S 756 mmHg 47%
    07:00 -11°C° 0 mm 4 m/S 756 mmHg 48%
    08:00 -10°C° 0 mm 4 m/S 756 mmHg 46%
    09:00 -9°C° 0 mm 4 m/S 756 mmHg 44%
    10:00 -10°C° 0 mm 5 m/S 757 mmHg 42%
    11:00 -8°C° 0 mm 5 m/S 756 mmHg 40%
    12:00 -7°C° 0 mm 5 m/S 756 mmHg 37%
    13:00 -6°C° 0 mm 5 m/S 756 mmHg 34%
    14:00 -6°C° 0 mm 5 m/S 755 mmHg 34%
    15:00 -5°C° 0 mm 5 m/S 755 mmHg 34%
    16:00 -5°C° 0 mm 5 m/S 754 mmHg 33%
    17:00 -6°C° 0 mm 5 m/S 754 mmHg 35%
    18:00 -6°C° 0 mm 5 m/S 754 mmHg 37%
    19:00 -7°C° 0 mm 5 m/S 754 mmHg 39%
    20:00 -7°C° 0 mm 5 m/S 754 mmHg 40%
    21:00 -7°C° 0 mm 5 m/S 754 mmHg 41%
    22:00 -8°C° 0 mm 6 m/S 754 mmHg 43%
    23:00 -9°C° 0 mm 6 m/S 754 mmHg 44%

    1 März, Donnerstag

    Zeit Temperatur Niederschläge Wind Luftdruck Luftfeuchtigkeit
    00:00 -9°C° 0 mm 6 m/S 753 mmHg 45%
    01:00 -9°C° 0 mm 6 m/S 753 mmHg 46%
    02:00 -10°C° 0 mm 6 m/S 752 mmHg 47%
    03:00 -10°C° 0 mm 6 m/S 752 mmHg 47%
    04:00 -10°C° 0 mm 6 m/S 751 mmHg 48%
    05:00 -10°C° 0 mm 6 m/S 751 mmHg 48%
    06:00 -10°C° 0 mm 6 m/S 750 mmHg 48%
    07:00 -11°C° 0 mm 6 m/S 750 mmHg 48%
    08:00 -10°C° 0 mm 6 m/S 750 mmHg 45%
    09:00 -9°C° 0 mm 6 m/S 749 mmHg 43%
    10:00 -9°C° 0 mm 7 m/S 749 mmHg 41%
    11:00 -6°C° 0 mm 6 m/S 749 mmHg 38%
    12:00 -5°C° 0 mm 6 m/S 748 mmHg 34%
    13:00 -4°C° 0 mm 6 m/S 748 mmHg 31%
    14:00 -4°C° 0 mm 6 m/S 747 mmHg 31%
    15:00 -4°C° 0 mm 6 m/S 747 mmHg 30%
    16:00 -3°C° 0 mm 6 m/S 746 mmHg 29%
    17:00 -4°C° 0 mm 6 m/S 746 mmHg 30%
    18:00 -4°C° 0 mm 6 m/S 746 mmHg 32%
    19:00 -4°C° 0 mm 6 m/S 746 mmHg 33%
    20:00 -4°C° 0 mm 6 m/S 746 mmHg 35%
    21:00 -5°C° 0 mm 5 m/S 746 mmHg 36%
    22:00 -5°C° 0 mm 5 m/S 746 mmHg 38%
    23:00 -5°C° 0 mm 5 m/S 745 mmHg 40%

    2 März, Freitag

    Zeit Temperatur Niederschläge Wind Luftdruck Luftfeuchtigkeit
    00:00 -5°C° 0 mm 5 m/S 745 mmHg 42%
    01:00 -5°C° 0 mm 5 m/S 744 mmHg 44%
    02:00 -6°C° 0 mm 5 m/S 744 mmHg 46%
    03:00 -6°C° 0 mm 5 m/S 743 mmHg 49%
    04:00 -5°C° 0 mm 4 m/S 743 mmHg 51%
    05:00 -5°C° 0 mm 4 m/S 743 mmHg 52%
    06:00 -5°C° 0 mm 4 m/S 742 mmHg 54%
    07:00 -5°C° 0 mm 4 m/S 742 mmHg 55%
    08:00 -4°C° 0 mm 4 m/S 742 mmHg 54%
    09:00 -3°C° 0 mm 4 m/S 742 mmHg 52%
    10:00 -3°C° 0 mm 4 m/S 742 mmHg 51%
    11:00 -1°C° 0 mm 4 m/S 741 mmHg 50%
    12:00 +1°C° 0 mm 3 m/S 741 mmHg 50%
    13:00 +2°C° 0 mm 3 m/S 741 mmHg 49%
    14:00 +2°C° 0,2 mm 3 m/S 741 mmHg 54%
    15:00 +3°C° 0,2 mm 2 m/S 741 mmHg 58%
    16:00 +2°C° 0,2 mm 2 m/S 741 mmHg 63%
    17:00 +2°C° 0,2 mm 2 m/S 741 mmHg 68%
    18:00 +2°C° 0,2 mm 2 m/S 741 mmHg 73%
    19:00 +1°C° 0,2 mm 2 m/S 741 mmHg 78%
    20:00 +1°C° 0,1 mm 2 m/S 741 mmHg 82%
    21:00 +1°C° 0,1 mm 2 m/S 742 mmHg 85%
    22:00 +1°C° 0,1 mm 2 m/S 742 mmHg 89%
    23:00 +1°C° 0 mm 2 m/S 742 mmHg 91%
    Mehr zeigen